Temp
10 9 9 9 9 8 8 12 13 14 12 12 13 14 15 15 15 14 13 13 12 11 11 12 12 12 11 11 11 10 9 9 8 8 8 7 7 7 6 6 6 6 6 6 6 6 6 5 6
9 9 9 8 8 8 11 13 13 13 12 11 13 14 14 15 15 15 14 13 11 11 11 12 12 12 11 11 10 10 10 9 9 8 7 7 7 7 6 6 6 6 6 6 6 6 5 5 5
8 8 8 7 8 9 11 14 14 13 11 12 12 13 14 14 14 14 14 12 11 11 11 12 12 11 11 11 10 10 10 9 9 8 8 7 7 7 6 6 6 6 6 6 6 6 6 6 5
8 8 7 7 9 11 13 14 13 13 12 11 12 13 13 14 13 13 12 11 12 12 12 11 12 11 11 11 10 10 10 9 9 8 8 7 7 7 6 7 6 6 6 5 5 6 6 6 5
7 7 7 8 9 10 11 13 12 13 12 12 12 12 13 13 13 12 12 12 12 12 11 11 11 11 11 10 10 10 10 9 9 8 8 7 7 7 7 6 6 5 5 5 5 5 5 5 5
6 6 7 8 10 10 10 11 11 12 12 12 12 12 12 12 12 12 12 12 12 11 11 11 11 11 11 10 10 10 10 9 9 8 8 7 7 7 7 6 6 6 5 5 5 5 4 4 5
6 6 8 8 8 9 10 10 11 11 11 12 11 12 12 12 11 11 11 11 11 11 11 10 11 11 11 10 10 10 9 9 9 8 7 7 7 7 7 6 6 5 5 5 5 4 4 5 5
6 6 6 7 6 7 9 10 11 10 11 11 12 11 12 12 12 12 11 11 10 10 10 10 10 10 10 10 10 9 9 9 9 8 7 7 7 7 6 6 6 5 5 5 5 4 4 4 4
5 5 7 6 6 7 8 10 11 9 10 10 11 11 12 11 11 11 11 11 10 10 10 10 10 10 10 10 10 9 9 9 8 8 8 7 7 6 6 6 6 6 6 5 5 4 4 4 4
4 5 9 6 8 8 8 9 10 9 9 10 10 11 11 11 11 11 11 11 10 9 10 10 10 10 10 10 9 9 9 9 8 8 8 8 7 7 6 6 6 6 6 5 4 4 4 4 4
5 6 8 8 7 7 7 8 9 8 9 8 9 10 11 11 11 11 11 10 10 10 9 9 9 9 10 10 9 9 9 8 8 8 8 8 8 7 7 6 6 6 5 5 5 4 4 3 3
5 7 6 7 6 6 6 6 8 7 10 8 8 7 10 11 11 10 11 10 10 10 10 9 9 9 9 9 9 9 9 8 8 8 8 8 8 7 7 6 6 5 5 5 4 4 3 3 3
4 5 6 6 5 5 5 6 5 7 10 7 8 8 8 10 10 10 10 10 10 10 9 9 9 9 9 9 9 9 9 8 8 8 8 8 8 7 7 7 6 6 6 5 4 4 3 3 3
2 2 4 5 6 4 3 5 4 8 8 7 8 8 8 9 10 10 10 9 10 9 9 9 9 8 8 9 9 9 9 8 8 8 8 7 7 7 7 7 7 6 6 5 5 4 4 3 3
-1 -1 0 3 5 3 2 3 4 8 6 6 8 7 7 8 9 9 9 9 9 9 9 9 8 8 8 8 8 8 8 8 8 8 8 7 7 7 7 7 7 6 6 5 5 4 4 3 3
-3 -2 -2 3 1 2 1 2 6 7 6 7 7 7 7 8 8 9 9 9 8 9 9 8 7 7 7 7 8 8 8 8 8 8 8 7 7 7 7 7 6 6 6 6 5 4 4 3 3
-3 -4 -3 -2 -0 -0 1 2 6 5 5 6 6 7 7 7 7 8 8 8 8 8 8 8 7 7 7 7 7 7 8 8 8 8 8 7 7 7 6 6 6 6 6 6 5 4 4 3 3
-4 -3 -3 -3 1 -0 0 1 3 3 4 5 6 6 7 7 8 8 8 8 8 8 8 8 8 7 7 7 7 7 7 8 8 8 8 7 7 7 6 6 6 6 6 5 5 4 4 3 2
-5 -4 -4 -3 -1 -1 -0 1 2 3 4 5 5 6 6 7 7 8 8 8 8 8 8 8 8 8 7 7 7 7 7 7 8 8 8 7 7 7 6 6 6 6 5 5 5 4 3 3 2
-5 -4 -5 -4 -3 -1 -1 1 2 2 4 5 5 6 6 7 8 8 8 8 7 8 8 8 8 8 8 8 8 7 7 7 7 7 7 7 7 7 6 6 6 5 5 5 5 4 3 3 2
-5 -4 -4 -4 -3 -2 -1 -0 1 3 4 4 5 6 6 6 6 7 7 7 8 8 8 8 8 8 8 8 7 7 6 6 7 7 7 7 7 7 6 6 6 5 5 5 5 4 3 3 2
-5 -4 -4 -5 -3 -2 -1 -2 1 3 3 4 4 5 5 5 5 6 7 7 7 7 7 7 8 7 7 7 6 7 7 7 6 6 7 7 7 7 7 6 6 5 5 5 4 4 3 3 3
-4 -4 -4 -3 -3 -1 -1 -2 1 2 3 4 4 4 4 4 5 6 7 6 7 7 7 7 8 7 7 6 5 5 5 5 6 6 6 7 7 7 7 6 6 6 5 5 4 4 3 3 2
-3 -3 -3 -2 -1 -3 -1 -1 1 2 2 2 2 3 3 3 5 4 5 6 7 7 7 7 7 7 7 6 7 6 5 5 5 5 6 6 6 7 7 6 6 6 5 4 4 3 3 2 2
-3 -3 -4 -3 -3 -2 0 -1 0 0 0 1 1 3 3 3 4 4 5 5 6 7 6 6 6 6 6 7 7 6 6 5 4 5 6 6 6 7 7 6 6 6 5 4 3 3 2 2 2
-2 -2 -2 -2 -2 -1 -0 -1 -0 -1 -0 0 1 1 2 3 3 4 4 4 5 6 6 6 7 6 5 4 5 6 6 6 5 5 6 6 6 7 6 6 6 6 5 4 3 3 2 2 2
-1 -2 -1 -1 -1 -2 -1 -1 -2 -1 -0 -2 -1 -0 1 1 2 3 4 4 5 5 6 6 6 6 6 5 5 5 6 5 5 5 6 6 6 6 6 6 6 6 5 4 4 3 2 2 1
-2 -1 -1 -1 -4 -4 -0 0 -2 -3 -1 -1 -2 -1 0 0 1 2 3 4 5 5 5 5 6 6 6 6 6 6 6 5 4 5 5 6 6 6 6 6 6 6 5 4 4 3 1 2 2
-2 -1 -1 -1 -1 -3 -2 -3 -4 -3 -3 -2 -3 -3 -2 -0 2 3 3 4 4 4 5 5 5 5 6 5 5 5 5 4 4 4 4 5 6 5 6 6 6 6 5 4 4 3 2 2 1
-2 -2 -1 -1 -2 -3 -2 -4 -5 -4 -4 -3 -3 -4 -3 -1 -0 0 1 2 3 3 3 3 3 3 4 4 5 4 3 3 3 3 4 5 5 5 5 6 6 6 5 4 3 2 2 2 1
Height
3134 3133 3134 3136 3141 3134 3132 3130 3131 3131 3135 3135 3135 3135 3133 3130 3130 3134 3133 3135 3136 3139 3140 3140 3141 3143 3142 3141 3139 3138 3138 3138 3139 3139 3140 3141 3142 3143 3144 3145 3147 3147 3147 3150 3149 3152 3151 3154 3155
3131 3130 3131 3130 3131 3126 3125 3126 3126 3130 3131 3131 3134 3132 3131 3129 3128 3127 3129 3131 3134 3137 3139 3139 3140 3141 3140 3139 3138 3136 3136 3136 3136 3137 3137 3139 3140 3141 3143 3144 3145 3145 3145 3147 3147 3149 3151 3152 3154
3128 3128 3129 3126 3121 3119 3119 3121 3124 3127 3128 3130 3133 3132 3128 3127 3125 3126 3126 3128 3132 3136 3136 3137 3138 3139 3138 3137 3135 3134 3134 3134 3134 3135 3135 3136 3138 3140 3141 3142 3143 3145 3146 3147 3148 3149 3150 3151 3152
3125 3126 3125 3117 3109 3113 3115 3119 3121 3123 3127 3127 3129 3130 3126 3125 3124 3125 3125 3127 3131 3133 3134 3136 3136 3138 3137 3135 3133 3132 3132 3132 3132 3132 3133 3134 3136 3138 3139 3141 3143 3144 3146 3147 3149 3150 3151 3152 3151
3120 3120 3118 3107 3103 3106 3111 3115 3119 3120 3122 3124 3127 3126 3124 3121 3122 3123 3124 3127 3129 3131 3132 3134 3135 3135 3134 3134 3132 3131 3131 3130 3130 3130 3131 3132 3134 3136 3138 3140 3141 3143 3145 3147 3147 3149 3150 3151 3151
3115 3115 3109 3098 3096 3105 3109 3114 3115 3116 3118 3119 3121 3122 3120 3118 3119 3121 3123 3126 3127 3128 3129 3131 3133 3133 3132 3132 3131 3130 3130 3129 3128 3128 3130 3130 3132 3134 3136 3138 3140 3142 3144 3146 3147 3147 3148 3149 3149
3110 3108 3095 3091 3093 3098 3105 3112 3109 3112 3113 3115 3119 3119 3115 3113 3116 3120 3123 3124 3125 3126 3127 3129 3130 3131 3130 3130 3130 3129 3129 3128 3127 3127 3128 3129 3130 3132 3134 3136 3138 3140 3142 3145 3146 3146 3146 3145 3147
3105 3103 3089 3084 3088 3089 3101 3106 3107 3108 3107 3111 3110 3110 3108 3111 3110 3114 3119 3121 3124 3124 3125 3126 3127 3128 3128 3128 3128 3128 3127 3126 3126 3126 3126 3127 3128 3130 3132 3134 3135 3137 3141 3143 3144 3145 3145 3145 3145
3101 3094 3074 3078 3086 3085 3097 3097 3100 3103 3102 3105 3107 3105 3105 3104 3105 3108 3113 3115 3119 3121 3122 3123 3124 3125 3126 3126 3126 3126 3126 3125 3125 3124 3124 3125 3126 3128 3130 3132 3133 3136 3138 3140 3142 3143 3143 3143 3143
3094 3087 3054 3078 3082 3084 3088 3090 3093 3097 3096 3098 3101 3102 3102 3099 3100 3102 3106 3109 3113 3117 3119 3120 3121 3122 3123 3123 3124 3124 3124 3123 3123 3123 3123 3123 3124 3126 3128 3129 3131 3133 3135 3137 3139 3140 3141 3140 3140
3083 3068 3072 3073 3077 3080 3079 3079 3087 3089 3084 3091 3097 3098 3098 3097 3096 3098 3102 3105 3108 3111 3115 3116 3118 3119 3120 3120 3121 3122 3122 3121 3121 3121 3121 3122 3122 3122 3125 3127 3128 3130 3132 3134 3136 3137 3138 3137 3136
3071 3062 3067 3066 3074 3072 3067 3075 3073 3084 3075 3084 3089 3095 3092 3091 3091 3092 3096 3099 3102 3106 3110 3112 3114 3115 3117 3117 3119 3119 3119 3120 3120 3119 3120 3120 3120 3120 3122 3124 3126 3127 3130 3131 3133 3134 3135 3135 3135
3058 3056 3062 3062 3064 3060 3063 3058 3065 3069 3070 3078 3082 3084 3086 3086 3086 3088 3091 3093 3097 3099 3103 3106 3108 3110 3113 3114 3115 3116 3117 3117 3117 3117 3117 3117 3118 3118 3119 3120 3122 3124 3126 3128 3129 3131 3132 3132 3132
3051 3052 3048 3051 3049 3051 3056 3051 3062 3049 3064 3068 3075 3078 3079 3081 3081 3084 3084 3087 3090 3093 3096 3098 3101 3104 3108 3111 3112 3113 3114 3114 3115 3115 3115 3115 3115 3116 3117 3117 3119 3120 3122 3123 3125 3126 3128 3129 3129
3044 3040 3038 3036 3036 3041 3051 3044 3041 3041 3056 3058 3064 3069 3073 3075 3077 3077 3078 3081 3085 3087 3091 3092 3095 3099 3102 3106 3107 3109 3111 3111 3111 3112 3112 3112 3113 3113 3114 3115 3116 3117 3117 3119 3120 3122 3123 3124 3125
3034 3032 3024 3021 3032 3033 3043 3028 3028 3039 3046 3047 3053 3059 3065 3068 3070 3072 3074 3076 3079 3082 3083 3087 3090 3093 3096 3100 3103 3105 3106 3107 3108 3109 3109 3109 3110 3111 3111 3112 3113 3114 3114 3114 3115 3117 3118 3119 3121
3024 3021 3022 3015 3024 3027 3030 3023 3015 3031 3037 3039 3044 3049 3053 3058 3062 3065 3068 3070 3073 3076 3078 3082 3085 3087 3091 3094 3098 3099 3101 3103 3104 3105 3105 3105 3106 3107 3107 3108 3109 3110 3109 3110 3111 3111 3113 3115 3116
3018 3020 3018 3016 3011 3021 3018 3015 3010 3022 3028 3030 3034 3040 3045 3049 3052 3058 3062 3065 3068 3071 3073 3076 3079 3081 3084 3088 3091 3093 3095 3097 3099 3100 3101 3101 3102 3102 3103 3104 3105 3105 3105 3105 3105 3106 3106 3110 3112
3013 3012 3009 3007 3008 3013 3011 3006 3008 3010 3016 3020 3025 3029 3035 3039 3046 3051 3056 3060 3062 3063 3065 3068 3071 3075 3076 3080 3083 3086 3089 3092 3094 3096 3096 3097 3098 3098 3098 3099 3099 3100 3099 3099 3099 3099 3100 3102 3105
3007 3005 3003 3001 3000 3006 3004 3000 3001 3004 3007 3011 3016 3021 3026 3031 3037 3042 3046 3049 3053 3051 3055 3060 3064 3067 3070 3074 3078 3081 3084 3087 3089 3091 3092 3092 3093 3093 3093 3094 3094 3094 3093 3093 3093 3093 3094 3096 3098
2997 2999 2998 2998 2997 2999 3000 2995 2994 2996 3000 3003 3008 3015 3022 3025 3026 3029 3032 3035 3039 3041 3044 3048 3055 3061 3064 3068 3071 3073 3077 3078 3081 3084 3086 3087 3088 3088 3088 3089 3089 3089 3088 3088 3087 3087 3088 3090 3093
2988 2994 2993 2993 2996 2994 2998 2991 2988 2990 2991 2996 3002 3010 3011 3014 3019 3022 3024 3025 3028 3029 3034 3039 3047 3053 3056 3058 3062 3066 3070 3072 3074 3076 3078 3080 3082 3083 3083 3084 3084 3084 3083 3082 3081 3081 3082 3084 3085
2980 2988 2987 2988 2989 2991 2991 2994 2981 2985 2985 2990 2996 2996 3002 3009 3013 3016 3016 3018 3020 3024 3027 3032 3039 3044 3046 3049 3053 3059 3062 3066 3067 3069 3069 3072 3074 3077 3078 3079 3079 3078 3077 3076 3075 3074 3075 3076 3077
2983 2983 2983 2982 2983 2983 2982 2987 2980 2981 2982 2985 2985 2989 2995 3002 3004 3009 3014 3015 3017 3020 3023 3027 3030 3036 3039 3044 3047 3049 3052 3058 3061 3062 3063 3065 3067 3070 3071 3072 3072 3072 3071 3069 3067 3066 3067 3066 3067
2981 2983 2982 2984 2980 2975 2978 2983 2978 2977 2977 2975 2980 2982 2987 2993 2998 3002 3006 3010 3014 3017 3020 3022 3025 3029 3032 3037 3039 3043 3045 3049 3053 3056 3057 3057 3059 3062 3065 3066 3065 3065 3064 3062 3059 3058 3057 3057 3057
2975 2977 2977 2973 2969 2972 2977 2976 2974 2972 2966 2966 2972 2977 2982 2988 2992 2996 3001 3006 3010 3013 3016 3020 3022 3023 3025 3026 3031 3036 3038 3040 3044 3048 3050 3051 3053 3055 3058 3059 3059 3058 3057 3055 3052 3050 3049 3049 3047
2973 2973 2977 2976 2972 2972 2975 2975 2972 2969 2970 2966 2959 2973 2978 2984 2989 2994 2998 3002 3005 3008 3011 3012 3013 3016 3019 3020 3020 3025 3030 3032 3035 3039 3043 3044 3046 3048 3050 3052 3052 3052 3050 3048 3046 3044 3043 3044 3046
2974 2976 2977 2976 2979 2980 2971 2972 2968 2964 2967 2970 2967 2971 2976 2982 2987 2991 2995 2998 2999 3001 3003 3004 3003 3006 3010 3010 3011 3013 3019 3022 3025 3030 3033 3036 3038 3040 3043 3045 3046 3045 3044 3043 3040 3039 3039 3040 3042
2977 2975 2975 2976 2977 2977 2974 2979 2979 2973 2971 2970 2974 2971 2977 2981 2983 2987 2989 2991 2992 2992 2993 2994 2994 2994 2996 2997 3001 3003 3007 3011 3016 3020 3024 3027 3029 3032 3035 3038 3039 3039 3038 3037 3035 3035 3035 3036 3037
2976 2976 2975 2975 2977 2977 2980 2986 2980 2980 2976 2973 2975 2976 2977 2977 2981 2982 2983 2982 2981 2983 2983 2984 2985 2985 2987 2989 2993 2996 3000 3002 3006 3011 3015 3018 3020 3024 3027 3030 3032 3033 3033 3032 3030 3031 3033 3034 3034
Wind_Speed
12 15 16 18 13 12 16 24 20 13 7 16 16 13 15 17 13 8 9 13 12 10 9 8 9 14 16 17 14 11 10 11 12 15 18 17 15 14 14 13 11 11 12 12 13 11 12 13 12
13 14 16 19 17 22 26 23 21 7 8 9 9 14 15 21 22 20 14 11 11 9 8 6 11 15 16 15 12 11 10 11 13 14 15 16 14 13 13 13 14 15 15 14 14 14 13 13 12
16 15 16 15 25 32 31 15 14 13 10 8 15 18 17 20 24 24 22 9 9 9 8 11 12 15 15 15 11 8 9 11 12 13 14 16 15 15 15 16 15 14 14 13 14 15 15 14 12
18 18 20 27 30 21 21 13 15 17 8 6 8 18 22 23 20 22 15 11 11 13 17 14 13 14 14 13 10 7 7 9 10 12 13 15 17 17 17 15 14 13 12 12 11 13 15 15 16
18 22 27 35 39 36 30 21 16 18 11 9 14 21 16 23 21 17 18 20 21 17 18 17 13 11 11 11 10 7 6 6 7 10 12 13 15 17 18 17 15 13 13 11 8 15 21 21 18
22 24 30 41 44 36 31 22 20 22 13 12 15 20 21 20 18 19 18 18 19 18 20 16 14 10 9 10 10 7 6 5 5 8 11 13 15 16 17 18 16 14 12 8 12 17 16 12 15
29 30 43 46 46 41 31 19 22 20 17 15 13 24 23 24 18 17 16 17 16 17 16 17 14 11 8 9 10 8 6 5 4 7 11 13 15 16 17 17 17 15 14 10 7 9 12 9 17
30 33 48 51 47 48 32 23 23 25 21 17 21 33 27 25 27 24 19 20 19 18 17 17 16 13 9 9 10 8 6 6 5 6 10 13 16 15 16 17 18 17 12 10 8 8 8 10 15
29 38 55 52 46 46 34 30 24 24 25 10 18 29 26 25 27 24 24 27 21 19 18 19 17 14 11 9 9 9 6 6 6 7 8 11 14 14 15 17 18 15 14 13 10 9 7 10 10
33 43 65 45 43 42 36 37 29 28 26 23 20 27 27 24 28 31 30 30 26 23 19 19 17 16 14 11 9 10 8 6 8 8 8 9 11 13 14 17 18 17 16 14 14 12 11 10 7
34 51 50 49 43 42 44 42 33 36 37 27 16 30 36 35 31 31 32 30 27 23 20 21 20 19 18 13 10 10 10 7 7 9 9 10 10 12 14 16 18 19 17 16 16 14 13 11 9
38 45 45 45 41 42 47 43 44 36 44 32 22 16 37 36 39 36 35 36 32 31 28 25 24 23 22 16 12 11 11 9 7 8 10 10 10 12 12 14 16 17 17 16 15 15 15 13 12
42 46 41 43 44 45 43 48 44 43 45 39 22 19 35 37 39 35 37 34 33 36 34 32 31 28 26 19 14 12 11 11 9 8 9 10 10 12 14 14 15 16 16 16 15 15 15 15 15
42 32 44 44 48 46 45 45 38 52 44 42 34 27 23 38 36 33 35 32 32 34 30 27 25 29 26 21 17 15 13 14 11 10 9 10 9 10 13 15 15 15 15 17 17 16 17 17 18
30 37 47 51 52 42 35 46 49 51 44 43 40 35 26 28 29 34 36 33 32 34 30 25 22 26 26 25 23 19 17 16 15 13 11 11 11 9 11 13 16 15 15 19 20 19 18 19 20
40 37 40 55 49 46 34 46 52 46 43 50 42 40 34 29 30 36 35 32 30 32 26 21 20 25 26 25 23 22 21 19 17 16 15 13 13 12 11 12 14 16 18 18 21 21 20 21 20
44 37 38 48 37 35 31 38 54 46 46 48 43 36 40 36 29 30 32 32 29 30 30 26 28 27 27 25 25 25 26 24 21 18 17 16 16 15 15 15 14 16 19 19 21 23 23 23 21
36 35 39 37 49 36 35 35 49 42 40 45 45 41 34 43 38 37 36 36 36 33 33 30 33 31 30 28 27 24 24 26 26 22 20 19 18 18 18 18 17 18 20 20 22 24 25 24 24
37 38 38 43 45 31 36 47 30 32 42 48 44 45 43 38 36 40 36 36 45 44 42 37 34 37 34 32 31 30 26 24 28 26 24 22 21 21 20 21 20 20 21 21 22 23 25 26 27
38 37 40 41 36 35 28 37 46 34 28 42 46 41 45 46 35 33 29 36 32 35 38 40 37 37 36 36 33 30 28 28 27 31 29 26 23 24 23 21 22 22 23 23 22 22 25 30 30
38 39 37 32 32 32 26 30 34 37 33 32 42 41 36 32 37 40 42 42 43 43 43 42 39 38 33 33 35 35 30 33 34 33 33 30 25 25 24 22 23 23 25 24 22 22 25 31 33
35 28 35 36 33 25 24 11 23 26 39 38 39 38 38 26 27 34 38 40 43 45 40 43 43 35 31 32 35 36 33 32 33 34 33 32 29 26 25 24 23 25 26 25 22 23 26 29 34
31 28 23 24 34 25 26 11 26 19 13 29 32 38 29 23 29 36 38 38 39 42 40 38 43 42 41 38 35 31 32 28 30 31 33 33 31 28 26 23 24 25 26 25 23 25 29 32 35
22 22 23 17 27 14 27 19 15 16 17 10 21 30 29 32 36 42 35 36 37 39 40 41 40 41 44 44 43 43 33 29 31 28 28 34 33 30 27 23 24 24 26 24 23 23 30 35 36
24 24 4 2 5 4 12 17 23 10 11 25 31 34 34 38 40 36 41 35 35 38 38 38 36 35 40 44 44 46 41 33 32 31 30 31 33 31 27 24 24 24 25 23 22 25 31 32 41
11 20 7 4 3 3 5 8 2 14 23 26 31 36 30 32 35 35 30 30 32 34 36 40 44 42 37 37 41 46 48 46 35 35 32 32 32 30 29 27 25 24 25 23 22 25 28 30 34
5 20 20 8 6 3 9 7 21 22 16 21 23 29 26 25 23 27 34 33 35 38 41 46 50 51 50 48 48 44 47 48 46 40 40 33 33 32 31 29 26 24 24 21 21 19 19 25 22
15 12 8 5 1 2 7 4 6 15 27 14 18 20 25 22 24 27 27 32 36 41 46 48 52 54 58 61 58 55 53 47 44 46 42 33 34 33 34 30 26 24 23 21 18 16 14 20 29
1 11 7 2 3 1 3 5 8 12 15 13 10 17 12 9 10 14 19 22 26 30 35 37 38 39 42 42 39 44 38 38 37 36 35 33 33 32 35 32 26 24 22 20 17 17 15 21 26
6 4 8 2 1 6 3 5 11 13 18 14 10 14 7 5 3 4 9 15 20 22 25 29 23 23 25 28 33 38 35 34 34 34 31 33 35 31 36 32 26 24 21 20 16 16 16 23 23
Wind_Direction
245 239 243 249 243 235 246 257 263 265 308 324 301 254 229 220 204 214 235 217 193 199 233 262 305 315 329 311 289 253 239 240 238 235 232 232 230 231 217 207 197 201 202 200 201 200 201 202 207
248 241 234 239 234 228 250 267 255 248 341 351 236 242 246 235 231 231 248 247 186 214 240 279 301 317 321 307 286 252 245 248 245 236 225 222 221 220 214 210 200 202 201 198 199 203 203 201 207
248 240 238 234 240 238 249 266 261 262 273 286 267 265 257 252 247 245 253 244 201 229 274 297 301 312 319 308 294 259 255 252 246 235 222 214 214 215 213 211 212 212 213 213 213 208 207 209 209
251 245 237 237 236 244 255 263 262 250 243 221 303 268 261 269 265 257 264 217 238 268 283 285 295 304 319 311 305 282 274 259 244 234 227 215 213 218 218 219 216 216 217 219 229 231 220 229 219
236 243 243 250 251 252 253 255 259 250 251 266 311 256 251 261 264 264 267 267 273 277 287 278 283 299 322 316 309 289 281 269 246 233 230 223 218 221 222 218 218 216 221 218 233 284 251 220 231
231 237 244 249 258 260 258 259 266 263 259 263 291 237 252 250 245 247 253 258 268 270 278 262 273 290 323 320 322 303 286 274 253 229 226 226 224 221 221 220 223 224 225 243 252 251 217 223 230
238 239 247 256 262 262 259 254 248 243 249 260 300 238 243 235 231 245 256 256 260 263 279 268 266 279 312 318 323 312 288 280 254 231 225 224 228 225 225 223 225 219 210 221 224 206 229 228 239
245 247 253 250 251 261 259 251 239 256 259 286 280 224 231 234 244 246 249 252 248 248 263 260 268 278 288 311 314 309 285 278 266 238 230 230 231 227 225 222 217 226 230 222 235 240 225 254 243
241 238 252 248 248 254 259 252 228 248 256 277 263 225 237 232 241 236 245 250 239 239 262 260 264 270 273 298 303 305 292 271 263 249 238 240 240 230 224 220 223 224 235 239 234 229 256 243 232
231 241 254 252 259 260 264 252 249 251 241 243 276 246 233 238 242 243 247 247 248 245 255 255 258 260 265 281 292 299 291 283 261 253 246 241 241 237 228 227 228 229 234 246 240 242 264 258 241
240 251 263 263 260 260 260 256 252 249 247 250 268 266 251 249 247 247 251 251 254 248 243 249 250 251 260 265 276 291 289 290 271 261 253 245 243 243 237 235 239 241 238 245 250 253 261 265 242
249 258 263 269 262 261 258 261 252 248 236 247 246 290 255 254 247 243 246 251 250 255 258 248 244 249 252 250 263 277 285 280 278 270 267 259 248 251 251 244 240 240 240 237 236 234 248 254 243
252 260 261 265 260 256 256 253 256 244 234 250 238 256 248 251 250 243 248 251 253 258 260 257 247 246 245 242 250 261 273 270 274 276 278 272 258 248 251 254 250 249 251 241 236 240 240 245 246
257 258 256 252 253 254 255 256 258 240 236 253 239 246 246 239 241 242 247 252 251 257 260 258 240 229 233 238 246 254 261 262 264 274 279 283 274 261 251 255 255 254 258 254 245 241 242 239 242
262 261 256 248 249 250 258 257 244 243 240 248 239 242 246 238 232 235 243 250 249 256 263 257 224 220 231 239 246 246 254 258 260 268 276 281 280 272 266 261 264 261 256 256 253 250 245 248 246
265 262 264 244 248 247 246 254 247 245 242 236 243 243 240 241 238 230 235 241 241 249 256 254 239 230 233 240 244 246 250 255 257 266 273 276 278 273 269 270 272 265 262 260 262 256 248 247 247
265 265 271 270 253 260 243 255 252 247 242 239 242 247 244 237 241 239 237 241 249 249 253 263 238 238 241 242 253 250 247 249 255 260 270 274 277 274 272 274 275 270 267 266 265 259 251 247 244
267 260 265 266 260 269 257 256 259 253 250 245 245 242 245 243 239 240 238 243 246 241 249 252 246 236 243 244 246 248 248 245 251 258 267 268 272 275 272 275 277 277 272 274 272 262 255 249 243
271 269 262 266 259 272 276 259 251 264 248 238 241 242 243 237 240 240 238 244 244 246 239 241 243 238 238 243 246 245 256 258 252 256 264 266 264 272 274 275 278 284 282 283 279 264 251 247 247
270 273 261 267 259 261 276 262 253 251 237 241 239 242 244 241 234 226 242 243 240 232 234 237 238 236 239 239 246 250 251 258 259 255 256 261 261 267 272 275 278 284 283 284 280 266 252 242 241
262 261 268 262 272 260 278 274 258 246 241 233 230 237 237 245 238 240 249 231 229 229 232 228 231 236 242 241 244 245 240 247 257 259 256 255 258 264 268 272 275 280 280 282 275 260 254 248 246
262 261 261 271 260 260 264 282 274 254 246 238 231 229 235 251 237 229 222 221 222 228 232 227 223 223 227 231 237 248 256 262 266 269 252 251 256 258 260 267 271 275 278 279 269 256 256 252 250
261 270 272 265 252 266 252 255 269 247 266 243 238 236 220 207 209 200 210 202 206 217 218 219 222 226 223 224 231 241 248 253 260 264 254 249 250 251 256 263 267 273 277 275 263 259 259 261 253
273 262 270 272 240 245 248 228 275 268 262 249 204 201 199 198 195 203 208 201 201 210 217 226 229 230 235 238 238 242 239 251 254 260 265 248 251 254 250 257 268 273 276 273 270 265 263 264 251
270 264 276 265 227 231 237 225 232 259 237 201 193 186 187 195 203 204 211 224 217 221 220 226 232 236 237 239 242 245 248 243 254 259 265 250 249 247 244 256 267 274 278 272 269 274 264 264 249
301 218 200 261 167 155 206 216 258 182 171 161 174 180 186 193 201 205 210 218 220 220 226 231 235 234 235 241 242 244 249 254 251 262 265 249 245 241 239 251 266 274 278 277 277 279 268 266 250
249 216 224 280 278 75 183 163 135 170 172 152 149 179 184 205 208 211 220 230 233 240 240 243 244 242 240 244 252 251 252 256 257 259 267 248 242 237 236 248 262 273 277 277 280 274 268 248 231
241 245 218 231 23 258 204 109 29 98 151 182 96 145 176 193 208 217 229 236 241 244 246 249 253 253 250 252 256 257 258 253 253 257 257 246 241 238 233 245 258 271 275 274 276 266 272 250 243
301 214 215 222 240 70 334 69 45 79 82 93 68 96 134 149 202 228 240 247 251 251 249 247 247 246 245 244 245 245 243 243 246 246 246 244 243 240 231 241 253 265 271 271 270 252 267 256 241
284 276 240 242 250 232 89 18 84 94 84 83 77 48 53 99 158 229 260 263 266 265 253 249 259 263 247 242 236 235 243 242 244 245 247 241 244 242 229 236 247 259 266 265 258 242 250 248 240